Location: Caracas
(10.5033°N, 66.8422°W)
Time: 03:18:23
(UTC-04:00)

Tiangong 1 - Pass Details

Date: 16 November 2017
Orbit: 284 x 308 km, 42.8° (Epoch: 22 November)

Event Time Altitude Azimuth Distance (km) Brightness Sun altitude
Rises 19:15:44 0° 204° (SSW) 1,981 5.3 -18.3°
Reaches altitude 10° 19:17:59 10° 185° (S) 1,152 3.7 -18.8°
Enters shadow 19:18:36 14° 174° (S) 969 3.2 -18.9°
